[[{"header":{"parameterUnit":"m.s-1","parameterCategory":1,"la1":30.2991,"la2":30.254,"lo1":-89.0895,"lo2":-89.0444,"dy":0.0017,"dx":0.0017,"nx":28,"ny":28,"refTime":"2025-07-07T21:00:00:Z","depth":0,"parameterNumber":2,"parameterNumberName":"U-component_of_WINDS"},"data":[0,0,0,0,0,0,0,0,0,0,0,0,0,0,0,0,0,0,0,0,0,0,0,0,0,0,0,0,0,0,0,0,0,0,0,0,0,0,0,0,0,0,0,0,0,0,0,0,0,0,0,0,0,0,0,0,0,0,0.939,0.9391,0,0.9516,0.9517,0.9519,0.9569,0.9568,0.9568,0.9568,0.9699,0.9703,0.9706,0,0,0,0,0,0,0,0,0,0,0,0,0,0.9195,0.9198,0.939,0.9392,0.9393,0.9516,0.9517,0.9519,0.9569,0.9568,0.9568,0.9568,0.9698,0.9702,0.9707,0,0,0,0,0,0,0,0,0,0,0,0,0,0.9296,0.9199,0.939,0.9433,0.9438,0.9515,0.9517,0.952,0.9569,0.9568,0.9568,0.9567,0.9696,0.9702,0.9707,0.9752,0,0,0.9725,0.9727,0,0,0,0,0,0,0,0,0.929,0.9303,0.9425,0.943,0.9436,0.9526,0.9497,0.9598,0.9569,0.9519,0.9568,0.9567,0.9642,0.9652,0.9677,0.9758,0.9764,0.9725,0.9729,0.9731,0.9733,0,0,0,0,0,0,0,0.9283,0.9298,0.944,0.9426,0.9433,0.9446,0.946,0.9516,0.9582,0.9523,0.9527,0.9541,0.9645,0.9671,0.968,0.9766,0.9725,0.973,0.9734,0.9736,0.9891,0.9892,0,0,0,0,0,0,0.9269,0.9292,0.9436,0.9444,0.936,0.945,0.9466,0.9498,0.9581,0.9594,0.9542,0.9543,0.9662,0.9674,0.9685,0.9743,0.9731,0.9736,0.974,0.989,0.9891,0.9892,0,0,0,0,0,0,0.9265,0.9281,0.9431,0.9369,0.9389,0.9454,0.9489,0.95,0.9527,0.9595,0.9607,0.9556,0.9662,0.9677,0.9735,0.9748,0.9739,0.9744,0.9889,0.9891,0.9891,0.986,0,0,0,0,0,0,0.9259,0.9279,0.9296,0.9369,0.9392,0.9478,0.949,0.9503,0.9536,0.9539,0.9612,0.9624,0.9663,0.9726,0.9741,0.9756,0.9749,0.9888,0.989,0.9891,0.986,0.9859,0.9859,0,0,0,0,0,0.9252,0.9283,0.9297,0.9314,0.9415,0.9478,0.9492,0.9535,0.9537,0.9555,0.9599,0.9621,0.9745,0.9732,0.9748,0.9766,0.9888,0.9889,0.9891,0.986,0.9859,0.9859,0,0,0,0,0,0,0.9211,0.9293,0.931,0.9365,0.9414,0.9487,0.9511,0.9533,0.9583,0.9585,0.9637,0.9653,0.9707,0.9742,0.9726,0.9814,0.9818,0.9823,0.9789,0.9789,0.9788,0.9779,0.9753,0,0,0,0,0,0.9208,0.9252,0.9322,0.9364,0.9388,0.9445,0.9474,0.9504,0.9557,0.9578,0.9627,0.9678,0.9729,0.9761,0.9811,0.9865,0.9882,0.9885,0.9885,0.9885,0.9888,0.992,0.9922,0.9897,0.9897,0.9897,0,0,0.9203,0.9253,0.9278,0.9357,0.9399,0.9444,0.9462,0.9509,0.9544,0.9586,0.9643,0.968,0.9742,0.9798,0.9825,0.9829,0.9899,0.9887,0.9886,0.989,0.9922,0.9924,0.9926,0.9898,0.9898,0.9898,0,0,0.9217,0.926,0.93,0.9341,0.9403,0.9441,0.9451,0.952,0.9546,0.9604,0.9637,0.9679,0.9765,0.9807,0.984,0.987,0.9893,0.9885,0.9884,0.9914,0.9916,0.9918,0.9929,0.9933,0.9889,0.9889,0.9889,0,0.9203,0.9272,0.9317,0.9363,0.9397,0.9436,0.9478,0.9516,0.9592,0.9615,0.9618,0.9726,0.977,0.9837,0.9845,0.987,0.9883,0.9877,0.9912,0.9915,0.9917,0.9928,0.9932,0.9887,0.9888,0.9888,0.9888,0,0.9252,0.9299,0.9324,0.9396,0.9433,0.9476,0.9529,0.9561,0.9587,0.9624,0.9684,0.9738,0.98,0.9818,0.9844,0.9889,0.989,0.9902,0.9907,0.9917,0.9929,0.9934,0.9885,0.9886,0.9886,0.9887,0,0,0.9243,0.934,0.9348,0.9381,0.9454,0.9492,0.9537,0.9597,0.9623,0.9675,0.9714,0.9786,0.9798,0.9835,0.9866,0.9893,0.9914,0.9902,0.9905,0.9903,0.9967,0.9957,0.9962,0.993,0.9931,0.9931,0.9962,0,0.9267,0.9349,0.9392,0.9456,0.95,0.9539,0.9579,0.9627,0.9664,0.9708,0.9749,0.9799,0.981,0.9833,0.9861,0.9905,0.9928,0.9904,0.9968,0.9969,0.9951,0.9968,0.9958,0.9984,0.9967,0.9968,0.9968,0,0.9306,0.9356,0.9424,0.9492,0.9512,0.9547,0.9606,0.9647,0.9703,0.9728,0.9769,0.98,0.9851,0.9852,0.9922,0.9905,0.9934,0.9959,0.9961,0.9969,0.9969,0.9976,0.9993,0.9997,0.9976,0.9975,0.9975,0,0.9293,0.9378,0.943,0.9457,0.9537,0.956,0.9595,0.9651,0.9684,0.9736,0.9759,0.9815,0.9847,0.989,0.9936,0.9933,1.0002,1.0007,1.0024,1.0023,1.0037,1.0035,1.0059,1.0055,1.0055,1.0055,1.0055,0,0.9315,0.9355,0.9425,0.9457,0.9503,0.9552,0.9597,0.9635,0.9685,0.9725,0.9762,0.98,0.9858,0.9903,0.9939,0.9992,1.0005,1.0027,1.0037,1.0024,1.0021,1.0044,1.0043,1.0056,1.0056,1.0056,1.0055,0,0.9308,0.9356,0.9415,0.9486,0.9505,0.9536,0.9597,0.963,0.9669,0.972,0.9734,0.9795,0.985,0.99,0.9973,0.9997,1.0051,1.0062,1.0031,1.0036,1.0051,1.0049,1.009,1.0098,1.0088,1.0088,1.0088,0,0.9319,0.9351,0.9425,0.9454,0.9488,0.9535,0.957,0.9619,0.9653,0.9721,0.9746,0.9803,0.9851,0.9937,0.9988,1.0045,1.0058,1.0068,1.0067,1.0053,1.0058,1.0056,1.0059,1.0068,1.0068,1.0068,1.0067,0,0.9333,0.9355,0.9403,0.9459,0.9499,0.9546,0.9594,0.9616,0.9675,0.9712,0.9768,0.9806,0.988,0.9937,0.9999,1.0035,1.0061,1.0068,1.0075,1.0062,1.0043,1.0054,1.003,1.0066,1.0067,1.0067,1.0067,1.0067,0.9335,0.9366,0.9423,0.9475,0.9516,0.956,0.9595,0.9638,0.9685,0.9749,0.9776,0.9833,0.989,0.9975,1.0012,1.0058,1.0063,1.0073,1.0076,1.0077,1.0075,1.0035,1.0069,1.0069,1.0069,1.0069,1.007,0,0.9352,0.939,0.9438,0.9504,0.9545,0.9565,0.962,0.9653,0.9703,0.9753,0.98,0.9865,0.992,0.9975,1.0034,1.006,1.0074,1.0074,1.0072,1.0081,1.0067,1.0055,1.0062,1.0062,1.0062,1.0062,1.0062,1.0062,0.9365,0.9417,0.9446,0.952,0.9559,0.9615,0.9644,0.9685,0.9726,0.9796,0.9842,0.9878,0.9931,0.9993,1.0045,1.006,1.008,1.0077,1.0095,1.0081,1.0081,1.0082,1.0071,1.0081,1.0081,1.0105,1.0105,1.0105]},{"header":{"parameterUnit":"m.s-1","parameterCategory":1,"la1":30.2991,"la2":30.254,"lo1":-89.0895,"lo2":-89.0444,"dy":0.0017,"dx":0.0017,"nx":28,"ny":28,"refTime":"2025-07-07T21:00:00:Z","depth":0,"parameterNumber":3,"parameterNumberName":"V-component_of_WINDS"},"data":[0,0,0,0,0,0,0,0,0,0,0,0,0,0,0,0,0,0,0,0,0,0,0,0,0,0,0,0,0,0,0,0,0,0,0,0,0,0,0,0,0,0,0,0,0,0,0,0,0,0,0,0,0,0,0,0,0,0,4.7919,4.7919,0,4.7921,4.7921,4.7921,4.7927,4.7928,4.7928,4.7928,4.7927,4.7927,4.7927,0,0,0,0,0,0,0,0,0,0,0,0,0,4.7919,4.7919,4.7919,4.7919,4.7919,4.7921,4.7921,4.7921,4.7927,4.7928,4.7928,4.7928,4.7927,4.7927,4.7927,0,0,0,0,0,0,0,0,0,0,0,0,0,4.792,4.7919,4.7919,4.7923,4.7923,4.7921,4.7921,4.7921,4.7927,4.7928,4.7928,4.7928,4.7927,4.7927,4.7927,4.7921,0,0,4.7926,4.7926,0,0,0,0,0,0,0,0,4.792,4.792,4.7922,4.7922,4.7923,4.7924,4.7921,4.7921,4.7927,4.7926,4.7928,4.7928,4.7926,4.7926,4.7926,4.7921,4.7921,4.7926,4.7926,4.7926,4.7926,0,0,0,0,0,0,0,4.792,4.792,4.792,4.7922,4.7922,4.7923,4.7924,4.7921,4.7924,4.7926,4.7926,4.7927,4.7926,4.7926,4.7926,4.7921,4.7926,4.7926,4.7926,4.7926,4.7912,4.7912,0,0,0,0,0,0,4.7919,4.792,4.792,4.792,4.7922,4.7923,4.7924,4.7923,4.7924,4.7925,4.7926,4.7927,4.7926,4.7926,4.7926,4.7919,4.7926,4.7926,4.7926,4.7912,4.7912,4.7912,0,0,0,0,0,0,4.7919,4.7919,4.792,4.792,4.792,4.7923,4.7923,4.7923,4.7923,4.7925,4.7925,4.7925,4.7926,4.7926,4.7922,4.7919,4.7926,4.7925,4.7912,4.7912,4.7912,4.7906,0,0,0,0,0,0,4.7919,4.7919,4.7917,4.792,4.792,4.7917,4.7923,4.7923,4.7923,4.7924,4.7924,4.7924,4.7926,4.7923,4.7922,4.7919,4.7925,4.7913,4.7912,4.7912,4.7906,4.7905,4.7904,0,0,0,0,0,4.7919,4.7915,4.7917,4.7917,4.7918,4.7917,4.7917,4.792,4.7923,4.7921,4.7922,4.7924,4.792,4.7922,4.7922,4.7918,4.7913,4.7912,4.7912,4.7907,4.7905,4.7904,0,0,0,0,0,0,4.7911,4.7915,4.7918,4.7914,4.7915,4.7918,4.7915,4.7918,4.7918,4.7918,4.7921,4.7921,4.7917,4.7917,4.792,4.7913,4.7917,4.7916,4.7913,4.7912,4.7911,4.7911,4.7925,0,0,0,0,0,4.7909,4.7908,4.7912,4.7908,4.7909,4.7912,4.7911,4.7914,4.7915,4.7915,4.7916,4.7916,4.7914,4.7913,4.7912,4.7907,4.7907,4.7904,4.7903,4.7902,4.7902,4.7899,4.7898,4.791,4.791,4.791,0,0,4.7904,4.7906,4.7905,4.7907,4.7908,4.7906,4.7912,4.791,4.7909,4.7914,4.7911,4.7912,4.7912,4.7908,4.7906,4.7908,4.7899,4.7902,4.7901,4.7901,4.7899,4.7898,4.7897,4.791,4.791,4.791,0,0,4.7895,4.7896,4.7894,4.7895,4.7897,4.79,4.7899,4.7902,4.7903,4.79,4.7904,4.7902,4.79,4.79,4.79,4.7892,4.7894,4.7891,4.7886,4.7884,4.7883,4.7882,4.7879,4.7878,4.789,4.789,4.789,0,4.7888,4.7887,4.7892,4.7891,4.7891,4.7897,4.7894,4.7895,4.7896,4.7895,4.7898,4.7895,4.7896,4.7892,4.789,4.789,4.7889,4.7891,4.7883,4.7882,4.7881,4.7879,4.7878,4.789,4.789,4.789,4.789,0,4.788,4.7879,4.7877,4.7879,4.7879,4.7877,4.7881,4.788,4.7883,4.7885,4.7882,4.7883,4.7883,4.7882,4.7884,4.7879,4.788,4.7882,4.7886,4.788,4.7878,4.7877,4.789,4.789,4.789,4.789,0,0,4.7864,4.787,4.7869,4.7871,4.7874,4.7873,4.7871,4.7872,4.7871,4.7872,4.787,4.7868,4.7871,4.7871,4.7873,4.7871,4.7865,4.7874,4.7874,4.7873,4.786,4.7858,4.7857,4.7867,4.7867,4.7867,4.786,0,4.7856,4.7854,4.7858,4.7855,4.7855,4.7861,4.7859,4.786,4.7863,4.7862,4.7864,4.7863,4.7867,4.7867,4.7865,4.7867,4.7863,4.7867,4.7865,4.7865,4.7865,4.7855,4.7853,4.7846,4.7859,4.7859,4.7859,0,4.7845,4.7847,4.7844,4.7848,4.7848,4.7847,4.7848,4.7848,4.7849,4.7851,4.7851,4.7855,4.7853,4.7857,4.7854,4.7857,4.7857,4.7857,4.7857,4.7857,4.7861,4.7855,4.7844,4.7843,4.7857,4.7857,4.7858,0,4.7835,4.7836,4.7835,4.7835,4.784,4.7839,4.7841,4.7843,4.7843,4.7844,4.7844,4.7845,4.7845,4.7844,4.7847,4.785,4.7845,4.7849,4.7846,4.7846,4.7844,4.7844,4.7833,4.7844,4.7844,4.7844,4.7844,0,4.7824,4.7822,4.783,4.7829,4.7827,4.7832,4.783,4.7832,4.7834,4.7834,4.7838,4.7837,4.7841,4.7841,4.7843,4.7841,4.7841,4.7842,4.7842,4.7841,4.7841,4.7841,4.7841,4.7843,4.7844,4.7844,4.7844,0,4.7812,4.7817,4.7816,4.7821,4.7822,4.7821,4.7825,4.7824,4.7827,4.7826,4.7826,4.783,4.783,4.7833,4.7833,4.7834,4.7831,4.7832,4.7831,4.7831,4.7828,4.7828,4.7816,4.7815,4.7826,4.7826,4.7826,0,4.7805,4.7804,4.7809,4.781,4.7812,4.7812,4.7813,4.7818,4.7819,4.7821,4.782,4.782,4.7821,4.782,4.7823,4.7823,4.7824,4.782,4.7824,4.7823,4.7824,4.7824,4.7824,4.7819,4.7819,4.7819,4.7819,0,4.7792,4.7795,4.7797,4.7799,4.78,4.7802,4.7804,4.7804,4.781,4.781,4.781,4.7811,4.7812,4.7812,4.7813,4.7814,4.7817,4.7818,4.7817,4.7816,4.7815,4.7815,4.7828,4.7818,4.7818,4.7818,4.7818,4.7818,4.7783,4.7782,4.7786,4.7788,4.779,4.7792,4.7792,4.7796,4.7796,4.7798,4.7801,4.7801,4.7803,4.7805,4.7806,4.7806,4.7808,4.7807,4.7806,4.7806,4.7806,4.7815,4.7806,4.7806,4.7806,4.7806,4.7806,0,4.777,4.7774,4.7775,4.7779,4.778,4.7784,4.7787,4.7787,4.7788,4.779,4.7791,4.7792,4.7792,4.7796,4.7796,4.7796,4.7797,4.7796,4.7796,4.7796,4.7804,4.7804,4.7794,4.7794,4.7794,4.7794,4.7794,4.7794,4.7764,4.7764,4.7767,4.7768,4.7771,4.7772,4.7774,4.7776,4.7778,4.7779,4.778,4.7782,4.7785,4.7786,4.7787,4.7788,4.7788,4.7786,4.7787,4.7794,4.7795,4.7796,4.7797,4.7786,4.7786,4.7779,4.7779,4.7779]}]]